Jacqueline Cochran Regional Airport
KTRM : now visible

Airfield :











YOU CAN JOIN US ON...

 
LOGIN :

Register | Disclaimer

   EN    FR    IT 

 









Legend :    VFR   Marginal VFR   IFR   Intensive IFR   Very Intensive IFR
Visi :
Ceiling :
>= 8 km
>= 3000ft
5 to 8 km
1000 to 3000 ft
1500m to 5 km
500 to 1000 ft
800 to 1500m
200 to 500 ft
< 800m
< 200 ft
Symbols :   Thunderstorms  Fog  Heavy snow  Heavy precipitations  Wind > 20 kt






- Airport Elevation : -115 ft


KTRM - Jacqueline Cochran Regional

CURRENT METAR :
  • 281152Z AUTO 35004KT 10SM CLR 12/M02 A3011 RMK AO2 SLP197 T01221017 10144 20089 57014

EXPIRED METARs :
  • 281052Z AUTO 36005KT 10SM CLR 11/00 A3012 RMK AO2 SLP200 T01060000
  • 280952Z AUTO 29005KT 10SM CLR 12/M01 A3014 RMK AO2 SLP208 T01171011

TAF KTRM
Valid from the 28 at 12:00 until the 29 at 12:00 UTC


281120Z 2812/2912 32005KT P6SM BKN200
FM281800 14007KT P6SM BKN200
FM290400 33006KT P6SM BKN150



MET'MAP, your aeronautical weather chart ! - Copyright ORBIFLY December 2007 - Disclaimer

ORBIFLY MET'MAP TEAM :

Programming & Development : Alexandra Zaïnal
Concept & original design : Baudouin d'Aumeries
Assistance for programming : Marc-Olivier Méhu
Technical & hardware support : Manuel Goepfert

Contact : metmap@orbifly.com




SOURCES & CREDITS :

   NOAA       Earth
Advisory